Location: Gugi
(45.4667°N, 11.1000°E)
Time: 08:03:32
(UTC+00:00)

Cosmos 2233 Rocket - Pass Details

Date: 17 November 2019
Orbit: 954 x 990 km, 82.9° (Epoch: 05 December)

Event Time Altitude Azimuth Distance (km) Brightness Sun altitude
Rises 16:20:35 0° 350° (N) 3,714 6.9 -6.7°
Reaches altitude 10° 16:23:08 10° 350° (N) 2,759 6.3 -7.2°
Maximum altitude 16:29:28 84° 263° (W) 996 4.2 -8.2°
Drops below altitude 10° 16:35:44 10° 177° (S) 2,721 6.5 -9.2°
Sets 16:38:13 0° 176° (S) 3,660 7.2 -9.7°
